User: anonymous   Login
Location: Unspecified
(48.8582°N, 2.2947°E)
Time: 20:15:32
(UTC+02:00)
Language:

Envisat - Orbit

View from above orbital plane
View from above orbital plane
View from above satellite
View from above satellite

Ground track
Ground track

The orbit data is extracted from the following two-line orbital elements,

1 27386U 02009A   19202.53396021 -.00000010  00000-0  10239-4 0  9991
2 27386  98.1478 221.8791 0001411  94.0196  79.0920 14.37953059910914
Epoch (UTC): 21 July 2019 12:48:54
Eccentricity: 0.0001411
inclination: 98.1478°
perigee height: 764 km
apogee height: 766 km
right ascension of ascending node: 221.8791°
argument of perigee: 94.0196°
revolutions per day: 14.37953059
mean anomaly at epoch: 79.0920°
orbit number at epoch: 91091

The dashed part of the orbit path shows where the satellite is in the earth's shadow,  

DLR